www.pogodaiklimat.ru

Погода и климат >> Архив погоды >> Китай >> Harbin


АРХИВ ПОГОДЫ в Harbin

Время (UTC), дата Ветер
(напр.,м/с)
 
Видим.   Явления Облачность Т
(С)
Тd
(С)
f
(%)
Тe
(С)
Тes
(С)
Комфортность P
(гПа)
Po
(гПа)
Тmin
(С)
Tmax
(С)
R
(мм)
R24
(мм)
S
(см)
00 14.11 ЮВ 1 4100 м дымка ясно -2.0 -3.7 88 -4 -4 тепло 1026.6 1030.7
03 14.11 Ю 5 15 км 4/4
[]
+2.4 -5.2 57 -3 -1 по сезону 1025.0 1025.0
06 14.11 Ю 2 24 км 3/3
[]
+4.6 -3.9 54 +2 +4 тепло 1023.3 1008.2 -6.3
09 14.11 н/о 1022.4 1002.3
12 14.11 ЮВ 2 н/о дымка ясно -1.4 -3.7 84 -5 -5 по сезону 1021.9 1006.7
15 14.11 В 2 8000 м н/о -0.6 -2.6 86 -4 -4 тепло 1021.4 1021.0
18 14.11 В 1 12 км н/о +0.5 -2.2 82 -1 -1 тепло 1020.6 1025.6 +4.6
21 14.11 З 2 10 км н/о +1.1 -2.8 75 -2 -2 тепло 1020.8 1021.0
00 15.11 СЗ 2 4300 м дымка 10/10
[]
+0.2 -1.5 88 -3 -3 тепло 1022.7 1007.6
03 15.11 З 4 30 км 10/10
[]
+0.1 -4.3 72 -5 -5 по сезону 1023.3 1023.0
06 15.11 З 3 30 км 3/3
[]
-0.8 -8.2 57 -5 -4 по сезону 1023.6 1008.5 -2.0
09 15.11 З 3 21 км 3/3
[]
-3.5 -9.7 62 -8 -8 по сезону 1024.8 1004.4
12 15.11 З 4 21 км ясно -5.6 -10.6 68 -12 -12 по сезону 1025.9 1010.6
15 15.11 З 2 24 км н/о -7.5 -11.8 71 -12 -12 по сезону 1026.5 1027.0
18 15.11 З 2 30 км н/о -9.0 -14.2 66 -13 -13 по сезону 1028.0 1032.8 +2.2
21 15.11 З 2 30 км н/о -9.8 -15.3 64 -14 -14 по сезону 1027.9 1028.0
00 16.11 З 3 16 км ясно -8.1 -14.3 61 -14 -13 по сезону 1028.4 1012.8
03 16.11 З 5 30 км ясно -3.5 -16.8 35 -9 -8 по сезону 1027.0 1027.0
06 16.11 З 6 30 км ясно -1.8 -16.3 32 -8 -7 по сезону 1024.5 1030.1 -10.0
09 16.11 ЮЗ 4 28 км ясно -3.5 -16.1 37 -9 -9 по сезону 1022.7 1023.0
12 16.11 ЮЗ 5 28 км н/о -3.5 -16.8 35 -9 -9 по сезону 1022.0 1006.6
15 16.11 ЮЗ 4 24 км н/о -4.4 -14.8 44 -10 -10 по сезону 1021.0 1000.6
18 16.11 З 3 28 км н/о -5.5 -14.3 50 -10 -10 по сезону 1020.6 1005.3 -1.7
21 16.11 З 3 21 км н/о -7.5 -13.3 63 -13 -13 по сезону 1021.2 1021.0
00 17.11 З 3 11 км ясно -6.5 -12.4 63 -12 -11 по сезону 1022.7 1007.3
03 17.11 З 3 30 км ясно -2.0 -12.6 44 -6 -3 по сезону 1022.8 1023.0
06 17.11 СЗ 2 30 км 9/9
[]
-0.4 -12.3 40 -3 -3 по сезону 1022.4 1028.2 -9.1
09 17.11 С 1 30 км 9/9
[]
-3.7 -12.1 52 -5 -5 по сезону 1023.1 1023.0
12 17.11 В 1 9000 м 9/9
[]
-4.7 -9.7 68 -7 -7 по сезону 1023.0 1007.6
15 17.11 ЮВ 2 13 км н/о -5.4 -8.8 77 -10 -10 по сезону 1022.5 1002.1
18 17.11 В 1 14 км н/о -7.3 -8.9 88 -10 -10 по сезону 1021.9 1006.6 0.0
21 17.11 В 2 14 км н/о -7.0 -8.6 88 -11 -11 по сезону 1021.0 1021.0
00 18.11 ЮВ 2 10 км ясно -4.8 -7.7 80 -9 -9 по сезону 1021.6 1006.3
03 18.11 В 2 12 км 3/3
[]
-1.1 -7.7 61 -4 -2 тепло 1020.5 1021.0
06 18.11 В 1 23 км 8/8
[]
-0.8 -9.9 50 -2 -2 по сезону 1019.5 1025.4 -8.0
09 18.11 штиль 0 27 км 8/8
[]
-4.2 -9.8 65 -5 -5 по сезону 1020.3 1020.0
12 18.11 штиль 0 14 км 9/9
[]
-4.1 -8.9 69 -5 -5 по сезону 1020.5 1005.2
15 18.11 СЗ 2 н/о мгла н/о -4.1 -9.5 66 -8 -8 по сезону 1020.8 1021.0
18 18.11 З 2 6000 м мгла н/о -7.2 -10.4 78 -12 -12 по сезону 1022.0 1027.5 -0.2
21 18.11 С 4 30 км н/о -8.1 -15.5 55 -15 -15 по сезону 1023.6 1024.0
00 19.11 З 1 9000 м ясно -8.7 -15.9 56 -11 -10 по сезону 1025.4 1009.9
03 19.11 С 2 30 км ясно -4.9 -19.4 31 -8 -5 по сезону 1025.1 1025.0
06 19.11 С 2 30 км ясно -2.9 -18.5 29 -6 -4 по сезону 1024.3 1029.5 -10.4
09 19.11 Ю 1 13 км ясно -7.7 -18.1 43 -10 -10 по сезону 1024.4 1024.0
12 19.11 ЮВ 1 7000 м мгла ясно -9.1 -13.7 69 -11 -11 по сезону 1024.5 1008.9
15 19.11 ЮВ 1 н/о мгла н/о -9.9 -14.3 70 -12 -12 по сезону 1023.8 1003.3
18 19.11 З 1 7000 м н/о -11.7 -16.1 70 -14 -14 по сезону 1023.1 1007.6 -2.5
21 19.11 ЮВ 1 н/о дымка н/о -11.2 -13.1 86 -13 -13 по сезону 1022.0 1022.0
00 20.11 З 3 н/о мгла 4/4
[]
-9.6 -13.7 72 -15 -15 по сезону 1022.6 1007.0
03 20.11 С 6 27 км 3/3
[]
-6.0 -12.5 60 -14 -13 по сезону 1023.3 1023.0
06 20.11 С 3 30 км ясно -5.3 -18.7 34 -10 -9 по сезону 1023.8 1029.6 -12.2
09 20.11 З 3 24 км ясно -8.4 -20.2 38 -14 -14 прохладно 1025.7 1026.0
12 20.11 З 2 7000 м 3/3
[]
-11.7 -19.6 52 -16 -16 прохладно 1027.3 1011.5
15 20.11 З 2 9000 м н/о -12.6 -18.4 62 -17 -17 прохладно 1027.3 1027.0
18 20.11 ЮЗ 2 23 км н/о -11.6 -18.6 56 -16 -16 по сезону 1026.4 1010.8 -4.5
21 20.11 Ю 3 30 км н/о -9.9 -19.3 46 -16 -16 по сезону 1024.3 1024.0

 

Местоположение метеостанции Harbin (Китай): широта 45.75 долгота 126.76 высота над уровнем моря 143 м.

В архиве по умолчанию представлена погода в Harbin за последнюю неделю. Архивные данные за месяц целиком и за предыдущие месяцы, начиная с января 2011 года, Вы можете получить, выбрав интересующий диапазон дат из раскрывающегося списка и нажав кнопку "Ввод!".


*Определитесь, кто Вы:
робот инопланетянин человек

Внимание! Время в таблицах - всемирное. Для получения местного времени необходимо прибавить поправку, которая в Harbin равна 8 ч.

Смотрите также архив погоды в соседних городах и на ближайших метеорологических станциях:

Погода в Shangzhi (Китай) (111 км)
Погода в Anda (Китай) (132 км)
Погода в Tonghe (Китай) (155 км)
Погода в Qian Gorlos (Китай) (166 км)
Погода в Hailun (Китай) (187 км)
Погода в Changchun (Китай) (239 км)
Погода в Mudanjiang (Китай) (259 км)
Погода в Keshan (Китай) (264 км)
Погода в Tailai (Китай) (268 км)
Погода в Yichun (Китай) (273 км)

Пояснения к столбцам:

Ветер - указаны скорость ветра в м/с - средняя за 10 мин, порывы в срок и между сроками (в фигурных скобках) и направление, откуда дует ветер: С - северный, СВ - северо-восточный, В - восточный, ЮВ - юго-восточный, Ю - южный, ЮЗ - юго-западный, З - западный, СЗ - северо-западный.
Видимость - горизонтальная дальность видимости в метрах или километрах. При видимости от 1 до 10 км при отсутствии осадков обычно наблюдается дымка, при ухудшении видимости до 1 км и менее - туман. В сухую погоду видимость может ухудшаться дымом, пылью или мглою.
Явления - указаны атмосферные явления, наблюдавшиеся в срок или в последний час перед сроком; фигурными скобками обозначены явления, наблюдавшиеся между сроками (за 1-3 часа до срока); квадратными скобками обозначены град или гололедные отложения с указанием их диаметра в мм.
Облачность - указаны через наклонную черту общая и нижняя облачность в баллах и высота нижней границы облаков в метрах; квадратными скобками обозначены формы облаков: Ci - перистые, Cs - перисто-слоистые, Cc - перисто-кучевые, Ac - высококучевые, As - высокослоистые, Sc - слоисто-кучевые, Ns - слоисто-дождевые, Cu - кучевые, Cb - кучево-дождевые. Подробнее классификацию облаков см. в Атласе облаков (PDF).
T - Температура воздуха - температура, измеренная на высоте 2 м над землей.
Td - Температура точки росы - температура, при понижении до которой содержащийся в воздухе водяной пар достигнет насыщения.
f - Относительная влажность воздуха - влажноcть воздуха, измеренная на высоте 2 м над землей.
Te - Эффективная температура - температура, которую ощущает одетый по сезону человек в тени. Характеристика душности погоды. При расчете учитывается влияние влажности воздуха и скорости ветра на теплоощущения человека.
Tes - Эффективная температура на солнце - температура, которую ощущает человек, с поправкой на солнечный нагрев. Характеристика знойности погоды. Зависит от высоты солнца над горизонтом, облачности и скорости ветра. Ночью, в пасмурную погоду, а также при ветре 12 м/с и более поправка равна нулю.
P - Атмосферное давление - приведенное к уровню моря атмосферное давление.
Po - Атмосферное давление - измеренное на уровне метеостанции атмосферное давление.
Tmin - Минимальная температура - минимум температуры воздуха на высоте 2 м над землей.
Tmax - Максимальная температура - максимум температуры воздуха на высоте 2 м над землей.
R - Количество осадков - Количество выпавших осадков за период времени, мм. При наведении курсора мыши на число - период времени, за который выпало указанное количество осадков.
R24 - Количество осадков - Количество выпавших осадков за 24 часа, мм.
S - Снежный покров - Высота снежного покрова, см. При наведении курсора мыши на число - состояние снежного покрова и степень покрытия местности в баллах.